Volver al catálogo

FENGYUN 1C DEB

ActivoPO
NORAD 30274·DEBRIS·🇨🇳 China

Lanzado May 10, 1999 desde Taiyuan Satellite Launch Center

Loading…

Próximos Pases (próximas 24 horas)

TLE

ActualizadoSource: Space-Track

Época: Sep 14, 2026, 17:17 UTC

1 30274U 99025YK  26257.72015591  .00005627  00000-0  12783-2 0  9996
2 30274  99.3183  62.2595 0002865 100.2645  27.9440 14.56447305 22211

Sigue FENGYUN 1C DEB en tiempo real con AllMySat

Download on the App Store